COSMOS 1275 DEB

Satellite information

Favourite Embed

Satellite Type and Status

DEBRISIN ORBIT

Key statistics

Satellite COSMOS 1275 DEB at a glance.

Uptime

16159

Days in orbit

Revolutions

≈ 14.7

Per day

Orbit

LEO

Low Earth Orbit

Inclination

82.9

Latest

Satellite identification and parameters

Extended collection of information and parameters for COSMOS 1275 DEB.

Object identification

Identified? True

Debris? True

Object name: COSMOS 1275 DEB

International designator: 1981-053BQ

Object number (NORAD): 12723

Object ID (CCSDS): 12723

Country: COMMONWEALTH OF INDEPENDENT STATES (CIS)

Current information (Y/N): Y

RCS size: SMALL

Orbital parameters

Period: 98.164 minutes

Inclination: 82.9377 deg

SMA: 7049.015 km

Apoapsis: 672.31 km

Periapsis: 669.449 km

RAAN: 89.9004 deg

Eccentricy: 0.00020293

Argument of periapsis: 36.9286 deg

Mean anomaly: 323.2061 deg

Mean motion: 14.6693246 rev/day

Mean motion (dot): 0.00017436 rev/day2

B* drag term: 0.0031084138 1/REarth

Two-line elements (TLE)

Creation date: Aug. 31, 2025, 2:26 a.m.

Reference frame: TEME

Reference center: EARTH

Epoch: Aug. 30, 2025, 7:58 p.m. UTC

TLE line 0: 0 COSMOS 1275 DEB

TLE line 1: 1 12723U 81053BQ 25242.83232786 .00017436 00000-0 31084-2 0 9995

TLE line 2: 2 12723 82.9377 89.9004 0002029 36.9286 323.2061 14.66932460268992

Live tracking on map

Real-time ground track for satellite COSMOS 1275 DEB.

In-orbit conjunctions

A list of the most updated potential collisions computed for object COSMOS 1275 DEB.

Target Orbit TCA Probability of collision Miss distance Type
FENGYUN 1C DEB SSO 2024-10-17 16:25:57 0.0001528328 119.0 (m) DEBRIS
NOAA 17 DEB SSO 2024-09-25 07:59:23 0.0001037878 408.0 (m) DEBRIS

Associated space launch

Navigation satellite providing location information for the Tsiklon-B navigation system

COSMOS 1275 DEB was lifted into orbit during the mission ‘Kosmos-3M | Parus 27’, on board a Kosmos-3M space rocket.

The launch took place on June 4, 1981, 3:41 p.m. from 132/2.

For more information about the launch, click the button.

Launch to space Kosmos-3M | Parus 27
Kosmos-3M | Parus 27

Agency: N/A

Status: Launch Successful

Launch date: June 4, 1981, 3:41 p.m. UTC

Rocket: Kosmos-3M

Launch pad: 132/2

Location: Plesetsk Cosmodrome, Russian Federation

...

Latest news about this satellite

There are no fresh news available about this satellite. Check back as we update our databases every day.


Newsletter sign-up

Weekly statistics, charts and insights to help you stay on top of the space industry.